Regional Weather Roundup
Issued by NWS Huntsville, AL

Home | Current Version | Previous Version | Text Only | Print | Product List | Glossary On
Versions: 1 2 3 4 5 6 7 8 9 10 11 12 13 14 15 16 17 18 19 20 21 22 23 24 25 26 27
000
ASUS44 KHUN 290310
RWRHUN

WEATHER ROUNDUP FOR THE TENNESSEE VALLEY
NATIONAL WEATHER SERVICE HUNTSVILLE AL
1000 PM CDT SUN AUG 28 2016

ALZ001>004-290400-
NORTHWEST ALABAMA

CITY           SKY/WX    TMP DP  RH WIND       PRES   REMARKS
COURTLAND HCN    N/A     77 N/A N/A NE3         N/A
RUSSELLVILLE     N/A     79 N/A N/A MISG        N/A
SHOALS AIRPORT CLEAR     80  71  74 E3        30.11R
SHOALS TVA RES   N/A     81 N/A N/A MISG        N/A
$$

ALZ005>007-016-290400-
NORTH CENTRAL ALABAMA

CITY           SKY/WX    TMP DP  RH WIND       PRES   REMARKS
CULLMAN AG STN   N/A     73 N/A N/A NE3         N/A
DECATUR AP     CLEAR     75  68  78 MISG      30.11R
HUNTSVILLE AP  CLEAR     78  68  71 E6        30.11R
MERIDIANVILLE  PTCLDY    70  64  83 CALM      30.12S
REDSTONE ARSN  PTCLDY    74  70  85 CALM      30.10S
VINEMONT AP    FAIR      74  67  80 NE6       30.13F
$$

ALZ008>010-290400-
NORTHEAST ALABAMA

CITY           SKY/WX    TMP DP  RH WIND       PRES   REMARKS
ALBERTVILLE    CLOUDY    73  73 100 CALM      30.12S
FORT PAYNE     MOCLDY    72  68  88 CALM      30.13R
SCOTTSBORO AP  MOCLDY    73  73 100 CALM      30.12F
SCOTTSBORO HCN   N/A     72 N/A N/A MISG        N/A
VALLEY HEAD      N/A     70 N/A N/A MISG        N/A
$$

TNZ076-096-097-290400-
SOUTHEASTERN MIDDLE TENNESSEE

CITY           SKY/WX    TMP DP  RH WIND       PRES   REMARKS
TULLAHOMA      CLEAR     75  70  83 CALM      30.15F
WINCHESTER     CLEAR     72  70  94 CALM      30.14F
$$

...SURROUNDING SITES...

CITY           SKY/WX    TMP DP  RH WIND       PRES   REMARKS
ATLANTA        MOCLDY    83  70  64 E12       30.12R
ANNISTON       PTCLDY    81  70  69 E3        30.09R
BIRMINGHAM     CLOUDY    79  73  82 NE6       30.10R
CHATTANOOGA    MOCLDY    75  73  93 SE3       30.14R
DALTON         PTCLDY    73  73 100 CALM      30.14R
GADSDEN        PTCLDY    77  72  84 NE6       30.10S
GOLDEN TRNGL   CLOUDY    84  70  61 CALM      30.04S
JACKSON TN     CLEAR     79  74  84 CALM      30.10R
MEMPHIS        PTCLDY    86  70  58 E5        30.08R HX  90
NASHVILLE      PTCLDY    79  71  76 NE9       30.14S
OXFORD MS      FAIR      75  72  88 CALM      30.09R
ROME           PTCLDY    75  72  90 NE7       30.11S
SAVANNAH       CLEAR     81  73  78 VRB5      30.09R
TUPELO         MOCLDY    81  73  76 CALM      30.06R
TUSCALOOSA     CLEAR     79  76  90 NE3       30.04R
$$

...GULF COAST WEATHER...

CITY           SKY/WX    TMP DP  RH WIND       PRES   REMARKS
GULFPORT       CLOUDY    77  76  96 N5        29.99R
PASCAGOULA     MOCLDY    74  74 100 CALM      30.00R
MOBILE         CLOUDY    75  74  96 VRB3      30.02R
GULF SHORES    CLOUDY    77  76  98 CALM      29.99S
PENSACOLA      CLOUDY    80  75  84 NE5       29.99R
DESTIN         LGT RAIN  84  76  76 W5        29.99F HX  93
PANAMA CITY    MOCLDY    79  76  91 CALM      29.95F
APPALACHICOLA  CLOUDY    80  78  94 N3        29.98R
$$





USA.gov is the U.S. government's official web portal to all federal, state and local government web resources and services.